Orbital Elements at Epoch 2459000.5 (2020-May-31.0) TDB
Reference: JPL 21 (heliocentric ecliptic J2000)
Element | Value | Uncertainty (1-sigma) | Units |
e | .1098679272045259 | 4.581e-08 | |
a | 2.806317152672824 | 1.6667e-08 | au |
q | 2.497992904030154 | 1.3122e-07 | au |
i | 4.077315650592665 | 5.1334e-06 | deg |
node | 174.765522304608 | 6.1913e-05 | deg |
peri | 191.6673637280949 | 6.5123e-05 | deg |
M | 116.5833300125877 | 1.9922e-05 | deg |
tp | 2458444.419701913533 (2018-Nov-21.91970191) | 9.4958e-05 | TDB |
period | 1717.131491179 4.70 | 1.5297e-05 4.188e-08 | d yr |
n | .2096519700729618 | 1.8677e-09 | deg/d |
Q | 3.114641401315494 | 1.8498e-08 | au |
|
| | Orbit Determination Parameters
Additional Information
|